Meriden, CT

10:12 PM EST on January 17, 2018 (GMT -0500)
Meriden Markham Municipal

Weather History for KMMK - July, 2013

Change the Weather History Date:

Saturday, July 13, 2013

  Actual Average (KOXC) Record (KOXC)
Temperature  
Mean Temperature 72 °F -  
Max Temperature 79 °F 76 °F 86 °F (2017)
Min Temperature 66 °F 58 °F 46 °F (2001)
Cooling Degree Days 8    
Growing Degree Days 22 (Base 50)    
Moisture  
Dew Point 68 °F    
Average Humidity 88    
Maximum Humidity 100    
Minimum Humidity 68    
Precipitation  
Precipitation 0.16 in - - ()
Sea Level Pressure  
Sea Level Pressure 30.26 in    
Wind  
Wind Speed 3 mph (North)    
Max Wind Speed 7 mph    
Max Gust Speed -    
Visibility 8 miles    
Events Rain    
Averages and records for this station are not official NWS values.
T = Trace of Precipitation, MM = Missing Value Source: NWS Daily Summary

Daily Weather History Graph

Daily Weather History Graph

Search for Another Location

Airport or City:

Trip Planner

Search our weather history database for the weather conditions in past years. The results will help you decide how hot, cold, wet, or windy it might be!

Date:

Astronomy

Jul. 13, 2013 Rise Set
Actual Time 5:29 AM EDT 8:24 PM EDT
Civil Twilight 4:56 AM EDT 8:57 PM EDT
Nautical Twilight 4:14 AM EDT 9:39 PM EDT
Astronomical Twilight 3:25 AM EDT 10:28 PM EDT
Moon 10:47 AM EDT (7/13) 10:58 PM EDT (7/13)
Length of Visible Light 16h 01m
Length of Day
14h 55m
Waxing Crescent, 25% of the Moon is Illuminated
Jul 13
Waxing Crescent
Jul 15
First Quarter
Jul 22
Full
Jul 29
Last Quarter
Aug 6
New

Hourly Weather History & Observations

Time (EDT) Temp. Dew Point Humidity Pressure Visibility Wind Dir Wind Speed Gust Speed Precip Events Conditions
12:53 AM 69.1 °F 57.9 °F 68% 30.17 in 10.0 mi Calm Calm - N/A   Overcast
1:53 AM 69.1 °F 59.0 °F 70% 30.17 in 10.0 mi NNE 3.5 mph - N/A   Overcast
2:53 AM 68.0 °F 60.1 °F 76% 30.17 in 10.0 mi NE 4.6 mph - N/A   Overcast
3:53 AM 69.1 °F 62.1 °F 78% 30.18 in 10.0 mi Calm Calm - N/A   Overcast
4:53 AM 68.0 °F 61.0 °F 78% 30.19 in 10.0 mi Variable 3.5 mph - N/A   Overcast
5:53 AM 66.9 °F 62.1 °F 84% 30.21 in 10.0 mi North 6.9 mph - 0.00 in   Overcast
6:37 AM 66.2 °F 62.6 °F 88% 30.23 in 8.0 mi NNE 6.9 mph - 0.00 in Rain Light Rain
6:53 AM 66.0 °F 62.1 °F 87% 30.23 in 10.0 mi NNE 4.6 mph - 0.00 in   Overcast
7:53 AM 66.0 °F 63.0 °F 90% 30.25 in 7.0 mi North 4.6 mph - 0.00 in   Overcast
8:53 AM 66.9 °F 64.0 °F 90% 30.27 in 10.0 mi NNW 5.8 mph - 0.01 in   Overcast
9:16 AM 66.2 °F 64.4 °F 94% 30.27 in 2.0 mi North 5.8 mph - 0.03 in Rain Rain
9:24 AM 66.2 °F 64.4 °F 94% 30.27 in 1.8 mi NNE 5.8 mph - 0.05 in Rain Light Rain
9:28 AM 66.2 °F 64.4 °F 94% 30.27 in 3.0 mi NNE 5.8 mph - 0.05 in Rain Light Rain
9:53 AM 66.9 °F 64.0 °F 90% 30.27 in 8.0 mi Variable 4.6 mph - 0.05 in   Overcast
10:53 AM 69.1 °F 66.0 °F 90% 30.28 in 10.0 mi North 5.8 mph - N/A   Overcast
11:53 AM 70.0 °F 66.9 °F 90% 30.28 in 5.0 mi North 3.5 mph - N/A   Overcast
12:53 PM 73.0 °F 68.0 °F 84% 30.28 in 10.0 mi North 4.6 mph - N/A   Overcast
1:53 PM 75.0 °F 69.1 °F 82% 30.28 in 10.0 mi Calm Calm - N/A   Overcast
2:53 PM 73.0 °F 70.0 °F 90% 30.28 in 1.8 mi North 5.8 mph - 0.00 in Rain Light Rain
2:58 PM 73.4 °F 69.8 °F 88% 30.28 in 2.5 mi North 3.5 mph - 0.00 in Rain Light Rain
3:06 PM 73.4 °F 69.8 °F 88% 30.28 in 6.0 mi North 3.5 mph - 0.00 in   Overcast
3:15 PM 73.4 °F 69.8 °F 88% 30.28 in 7.0 mi North 4.6 mph - 0.00 in   Overcast
3:46 PM 75.2 °F 69.8 °F 83% 30.28 in 8.0 mi North 3.5 mph - 0.00 in   Overcast
3:53 PM 75.0 °F 70.0 °F 84% 30.27 in 9.0 mi NNW 5.8 mph - 0.00 in   Overcast
4:53 PM 75.9 °F 71.1 °F 85% 30.27 in 10.0 mi Calm Calm - N/A   Overcast
5:13 PM 78.8 °F 71.6 °F 78% 30.26 in 10.0 mi Calm Calm - N/A   Overcast
5:53 PM 79.0 °F 72.0 °F 79% 30.26 in 10.0 mi Calm Calm - N/A   Overcast
6:13 PM 78.8 °F 71.6 °F 78% 30.27 in 10.0 mi Calm Calm - N/A   Scattered Clouds
6:53 PM 79.0 °F 72.0 °F 79% 30.27 in 10.0 mi Calm Calm - N/A   Clear
7:44 PM 78.8 °F 73.4 °F 83% 30.28 in 10.0 mi South 6.9 mph - N/A   Mostly Cloudy
7:53 PM 77.0 °F 73.0 °F 88% 30.27 in 10.0 mi South 3.5 mph - N/A   Mostly Cloudy
7:56 PM 77.0 °F 73.4 °F 89% 30.27 in 10.0 mi Calm Calm - N/A   Scattered Clouds
8:21 PM 75.2 °F 73.4 °F 94% 30.28 in 10.0 mi Calm Calm - N/A   Mostly Cloudy
8:53 PM 75.9 °F 72.0 °F 87% 30.28 in 10.0 mi Calm Calm - N/A   Overcast
9:53 PM 75.0 °F 72.0 °F 90% 30.29 in 8.0 mi Calm Calm - 0.00 in Rain Light Rain
10:13 PM 73.4 °F 73.4 °F 100% 30.29 in 2.0 mi Calm Calm - 0.08 in Rain Heavy Rain
10:19 PM 73.4 °F 71.6 °F 94% 30.29 in 1.8 mi Calm Calm - 0.10 in Rain Heavy Rain
10:23 PM 73.4 °F 73.4 °F 100% 30.29 in 3.0 mi Calm Calm - 0.10 in Rain Light Rain
10:30 PM 73.4 °F 73.4 °F 100% 30.29 in 8.0 mi Calm Calm - 0.10 in   Overcast
10:53 PM 75.0 °F 73.0 °F 94% 30.29 in 5.0 mi Calm Calm - 0.10 in Rain Light Rain
11:29 PM 73.4 °F 73.4 °F 100% 30.30 in 10.0 mi Calm Calm - 0.00 in   Overcast
11:40 PM 73.4 °F 73.4 °F 100% 30.30 in 10.0 mi Calm Calm - 0.00 in   Overcast
11:53 PM 73.9 °F 73.0 °F 97% 30.30 in 7.0 mi Calm Calm - 0.00 in   Overcast